Regional Weather Roundup
Issued by NWS State College, PA

Home | Current Version | Previous Version | Text Only | Print | Product List | Glossary Off
Versions: 1 2 3 4 5 6 7 8 9 10 11 12 13 14 15 16 17 18 19 20 21 22 23 24 25 26 27 28 29 30 31 32 33 34 35 36 37 38 39 40 41 42 43 44 45 46 47 48 49 50

000
ASUS41 KCTP 160710
RWRCTP

REGIONAL WEATHER ROUNDUP
NATIONAL WEATHER SERVICE STATE COLLEGE PA
200 AM EST MON JAN 16 2017

Note: "fair" indicates few or no clouds below 12,000 feet with no
significant weather and/or obstructions to visibility.

* = STATION THAT DOES NOT REPORT PRECIPITATION /E.G. RAIN...SNOW...ETC/
    THUNDER OR FOG.

PAZ002>004-007>009-013>016-020>023-029>032-160800-
WESTERN PENNSYLVANIA

CITY           SKY/WX    TMP DP  RH WIND       PRES   REMARKS
ERIE           CLOUDY    25  19  78 S5        30.37S
MEADVILLE      CLOUDY    24  17  74 CALM      30.33S
FRANKLIN*        N/A     19  14  79 CALM      30.35R
NEW CASTLE     FAIR      17  15  92 CALM      30.36S
BEAVER COUNTY  NOT AVBL
BUTLER*        PTCLDY    19  16  86 CALM      30.36F
PITTSBURGH INT MOCLDY    26  22  84 CALM      30.34S
PITTSBURGH     PTCLDY    29  18  63 CALM      30.33S
INDIANA*       CLEAR     21  19  93 E3        30.37S
LATROBE        PTCLDY    25  23  93 CALM      30.35S
WASHINGTON CO* CLOUDY    25  23  93 CALM      30.33F
$$

PAZ004>006-010>012-017>019-024>028-033>037-041-042-045-046-049>053-160800-
CENTRAL PENNSYLVANIA

CITY           SKY/WX    TMP DP  RH WIND       PRES   REMARKS
BRADFORD       CLOUDY    16  13  88 CALM      30.29F
DUBOIS         CLOUDY    21  16  81 E6        30.32R WCI  13
CLEARFIELD     CLOUDY    18  15  88 N5        30.37R WCI  11
JOHNSTOWN      CLEAR     26  22  84 S3        30.29S
ALTOONA        CLEAR     24  18  77 CALM      30.35S
STATE COLLEGE  CLOUDY    23  19  85 CALM      30.37S
WILLIAMSPORT   PTCLDY    20  16  84 CALM      30.43R
SELINSGROVE    CLOUDY    17  16  95 NW3       30.44R
FT INDIANTOWN  CLEAR     21  21 100 CALM      30.43R
CAPITAL CITY   PTCLDY    25  19  78 CALM      30.44R
HARRISBURG     CLOUDY    23  20  88 CALM      30.43R
YORK           CLOUDY    19  18  95 CALM      30.42R
$$

PAZ038>040-043-044-047-048-054-055-060>062-067>071-160800-
EASTERN PENNSYLVANIA

CITY           SKY/WX    TMP DP  RH WIND       PRES   REMARKS
SCRANTON       CLOUDY    16  13  88 E6        30.40S WCI   7
MOUNT POCONO   CLOUDY     6   2  83 CALM      30.33R
ALLENTOWN      PTCLDY    20  15  81 W3        30.44R
QUAKERTOWN*    CLOUDY    18  18 100 CALM      30.44R
READING        CLEAR     22  17  81 CALM      30.43S
LANCASTER      CLEAR     25  21  85 CALM      30.43S
COATESVILLE    SUNNY     25  19  80 CALM      30.43R
POTTSTOWN      CLEAR     20  17  88 CALM      30.45R
BLUE BELL      CLEAR     23  21  93 CALM      30.44R
DOYLESTOWN     PTCLDY    24  18  77 CALM      30.43R
WILLOW GROVE   NOT AVBL
NORTH PHILA    CLEAR     28  19  69 NW5       30.46R
PHILADELPHIA   PTCLDY    29  19  66 NW3       30.46R
$$



USA.gov is the U.S. government's official web portal to all federal, state and local government web resources and services.